Regional Weather Roundup
Issued by NWS Upton, NY

Home | Current Version | Previous Version | Text Only | Print | Product List | Glossary On
Versions: 1 2 3 4 5 6 7 8 9 10 11 12 13 14 15 16 17 18 19 20 21 22 23 24 25 26 27
000
ASUS41 KOKX 161508
RWROKX

REGIONAL WEATHER ROUNDUP
NATIONAL WEATHER SERVICE NEW YORK NY
1100 AM EDT WED AUG 16 2017

NOTE: "FAIR" INDICATES FEW OR NO CLOUDS BELOW 12,000 FEET WITH NO
SIGNIFICANT WEATHER AND/OR OBSTRUCTIONS TO VISIBILITY.

NYZ071-072-176-178-NJZ106-104-161600-
NEW YORK CITY METRO AREA

CITY           SKY/WX    TMP DP  RH WIND       PRES   REMARKS
Central Park   SUNNY     79  65  62 CALM      29.99S
Bronx Bot Gard   N/A     81  63  54 W3        29.97F
LaGuardia APRT MOSUNNY   80  64  58 N8        29.96S
Kennedy INTL   MOSUNNY   82  67  60 N9        29.97S
Breezy Point     N/A     79 N/A N/A NW8         N/A
Newark/Liberty PTSUNNY   82  62  50 N13       29.97R
Teterboro      SUNNY     82  63  52 N9        29.96R
$$

NYZ177-179-078>081-161600-
LONG ISLAND NEW YORK

CITY           SKY/WX    TMP DP  RH WIND       PRES   REMARKS
Jones Beach      N/A     77 N/A N/A N8          N/A
Matinecock PT    N/A     75 N/A N/A SW2         N/A
Farmingdale    SUNNY     79  65  62 N6        29.96S
MacArthur/ISP  MOSUNNY   80  66  62 NW10      29.95S
Shirley        SUNNY     82  67  60 NW9       29.95S
Mt Sinai Harb    N/A     79 N/A N/A NW1         N/A
Westhampton    SUNNY     79  65  62 N10       29.96R
East Hampton   FAIR      77  67  72 NW5       29.94S
Montauk          N/A     76  68  76 NW7       29.94S
$$

NYZ052-065-067-161600-
HUDSON VALLEY

CITY           SKY/WX    TMP DP  RH WIND       PRES   REMARKS
White Plains   MOSUNNY   79  65  62 NW8       29.97S
Larchmont Harb   N/A     77 N/A N/A NW5         N/A
Croton On Huds   N/A     82 N/A N/A NW6G12      N/A
Newburgh       SUNNY     77  66  69 VRB6      30.01S
Montgomery     SUNNY     79  64  60 NW9       29.99S
Poughkeepsie   SUNNY     77  62  59 N8        29.98S
Albany         PTSUNNY   77  61  57 NE9       30.00R
$$

NJZ001-105-106-008-010-013-015-019>022-104-161600-
NEW JERSEY

CITY           SKY/WX    TMP DP  RH WIND       PRES   REMARKS
Newark/Liberty PTSUNNY   82  62  50 N13       29.97R
Teterboro      SUNNY     82  63  52 N9        29.96R
Caldwell       SUNNY     80  66  62 VRB6      29.98S
Somerville     SUNNY     81  65  58 NW7       29.97R
Linden         FAIR      79  64  58 CALM      29.98R
Perth Amboy      N/A     77 N/A N/A NW7         N/A
Sussex         SUNNY     77  66  68 VRB6      30.00F
Andover          N/A     77  65  66 VRB7      30.01S
Trenton        SUNNY     80  69  69 N6        29.99R
Millville      CLOUDY    83  73  72 VRB7      29.99R
Atlantic City  MOSUNNY   82  71  69 N8        29.98R
Wrightstown    SUNNY     79  69  73 N6        29.97R
Toms River     CLOUDY    79  69  71 VRB6      29.99R
Belmar         SUNNY     81  67  62 NW9       29.99R
$$

PAZ047>061-062-071-161600-
EASTERN PENNSYLVANIA

CITY           SKY/WX    TMP DP  RH WIND       PRES   REMARKS
Philadelphia   CLOUDY    81  68  64 NW7       30.00R
Allentown      SUNNY     80  66  62 VRB3      30.01R
Scranton       CLOUDY    74  66  76 W5        30.05F
$$

CTZ002-004>006-009-010-012-RIZ004-006-007-MAZ004-011-015-161600-
SOUTHERN NEW ENGLAND
 IN CT

CITY           SKY/WX    TMP DP  RH WIND       PRES   REMARKS
Bradley INTL   MOSUNNY   80  62  54 N13       29.95S
Hartford       SUNNY     80  64  58 N10       29.93F
Danbury        MOSUNNY   78  64  61 NW12      29.99R
Wtrbury/Oxford MOSUNNY   77  63  61 NW12      29.98S
Norwalk Harbor   N/A     77 N/A N/A N13         N/A
Bridgeport     SUNNY     80  63  55 NW10G18   29.95S
Meriden        SUNNY     80  61  52 N10       29.94S
New Haven      SUNNY     80  63  55 N14       29.94S
Chester        NOT AVBL
Groton         SUNNY     81  64  56 N8        29.92S
Wilimantic     SUNNY     80  63  55 N10       29.93F

 IN RI

CITY           SKY/WX    TMP DP  RH WIND       PRES   REMARKS
Providence     MOSUNNY   82  65  56 N8G22     29.93S
Block Island     N/A     77  68  73 NW7       29.93S
Westerly       MOSUNNY   83  65  54 MISG      29.93S
 IN MA

CITY           SKY/WX    TMP DP  RH WIND       PRES   REMARKS
Boston         MOSUNNY   81  59  47 N13G23    29.91F
Worcester      MOSUNNY   75  59  57 N8        29.97S
Westfield      SUNNY     81  61  50 NW14      29.95S
Provincetown   SUNNY     73  66  78 N10       29.92R
Nantucket      SUNNY     77  67  71 N13       29.91R
$$

ANZ330-335-338-340-345-350-353-355-161600-
COASTAL MARINE OBSERVATIONS


STATION/POSITION TIME  SKY/WX   TEMP    WIND        PRES    VSBY  WAVE
                                AIR SEA DIR/SP/G                  HT/PER
                 (UTC)          (F)     (DEG/KT/KT) (MB)    (MI)  (FT/S)
NY HARB ENTRANCE 1350            73 75  310/ 10/ 12 1014.0          5/12
GREAT SOUTH BAY  1415            76 77  340/ 10/ 12   N/A
23 SSW MONTAUK P 1350            72 71              1013.8          5/10
15 E BARNEGAT LI 1430               76                N/A           5/10
HUDSON CANYON    1350            74 74  340/ 12/ 16 1013.3          6/12
KINGS POINT      1430            74 73  360/  2/  3 1014.6
EXECUTION ROCKS  NOT AVBL
WESTERN LI SOUND NOT AVBL
CENTRAL LI SOUND NOT AVBL
EASTERN LI SOUND NOT AVBL
ROBBINS REEF     1430                    10/  5/  6 1015.4
$$


>>>>>>>>>>>>>>>>>>>>>>>>>>>> KEY <<<<<<<<<<<<<<<<<<<<<<<<<<<
>                                                          <
>     SKY/WX - Sky Condition/Present Weather               <
>     TMP    - Temperature in Fahrenheit                   <
>     DP     - Dew Point in Fahrenheit                     <
>     RH     - Relative Humidity in Percent                <
>     WIND   - Direction (from) and Speed in MPH           <
>     PRES   - Mean Sea Level Pressure (inches of Hg)      <
>     WCI    - Wind Chill Index                            <
>     VSB    - VISIBILITY IN MILES                         <
>     HX     - HEAT INDEX                                  <
>     TC     - TEMPERATURE IN CELSIUS                      <
>     VRB    - VARIABLE WIND DIRECTION                     <
>                                                          <
>>>>>>>>>>>>>>>>>>>>>>>>>>>> KEY <<<<<<<<<<<<<<<<<<<<<<<<<<<




USA.gov is the U.S. government's official web portal to all federal, state and local government web resources and services.